Location: Emporia
(38.4040°N, 96.1810°W)
Time: 22:41:31
(UTC-05:00)

ISS - Visible Passes

Search period start: 28 April 2017 00:00
Search period end: 08 May 2017 00:00
Orbit: 401 x 409 km, 51.6° (Epoch: 29 April)

Date Brightness Start Highest point End Pass type
(mag) Time Alt. Az. Time Alt. Az. Time Alt. Az.
02 May -1.1 05:44:12 10° SSE 05:45:58 14° SE 05:47:44 10° E visible
04 May -2.6 05:35:03 10° SSW 05:38:04 35° SE 05:41:06 10° ENE visible
05 May -1.7 04:45:01 15° SSE 04:46:09 18° SE 04:48:27 10° E visible
06 May -3.9 05:27:44 16° SW 05:30:16 83° NW 05:33:32 10° NE visible
07 May -3.3 04:37:43 42° SSE 04:38:13 46° SE 04:41:22 10° ENE visible
